Location: Dreilärchen
(47.9312°N, 8.6113°E)
Time: 20:45:26
(UTC+00:00)

ALOS - Pass Details

Date: 26 May 2022
Orbit: 682 x 683 km, 97.9° (Epoch: 02 July)

Event Time Altitude Azimuth Distance (km) Brightness Sun altitude
Rises 02:30:13 0° 19° (NNE) 3,058 7.0 -9.2°
Reaches altitude 10° 02:32:36 10° 27° (NNE) 2,137 6.2 -8.9°
Maximum altitude 02:37:01 41° 98° (E) 990 3.5 -8.4°
Drops below altitude 10° 02:41:24 10° 168° (SSE) 2,121 4.5 -7.9°
Sets 02:43:44 0° 176° (S) 3,031 5.2 -7.6°
